Dewpoint
23 23 24 23 21 20 21 21 21 21 19 18 17 18 18 19 19 20 20 18 17 16 17 17 17 17 17 18 17 16 15 13 13 12 11 12 12 13 11 9 7 10 12 9 14 15 15 13 13 15 16 15 17 17 16 16 16 17 18 18 17 16 14 13 11 10 10 11 14 12 13 14 12 13 13 13 13 12 16 12 13 13 13 12 13
23 23 23 22 20 20 20 20 20 20 18 17 17 18 18 18 19 19 16 17 17 16 16 17 16 16 16 16 15 14 13 11 11 9 9 11 14 15 8 6 6 7 8 7 10 15 12 11 11 12 15 13 14 12 13 13 13 14 14 16 13 14 14 14 11 11 9 9 10 12 12 13 12 12 12 12 11 13 11 11 12 12 12 12 12
23 23 22 20 19 19 19 19 19 18 17 17 17 17 17 17 19 17 17 18 17 16 16 16 16 15 15 14 14 12 10 8 7 6 5 4 4 7 7 5 5 6 6 6 8 11 10 10 10 11 14 10 10 11 12 11 12 11 11 11 11 11 13 13 12 10 10 10 11 11 10 11 11 11 11 12 13 12 11 10 11 12 13 12 12
23 22 21 19 18 19 18 18 18 17 16 16 16 16 17 18 18 17 17 17 16 16 16 15 14 13 12 11 9 8 6 5 5 5 4 3 3 4 4 4 5 5 6 6 8 9 10 10 10 10 10 9 9 10 10 10 10 10 10 10 11 11 11 12 13 12 12 11 11 11 11 10 11 11 12 12 11 10 10 10 10 11 11 12 11
22 21 19 18 18 17 17 17 16 16 16 16 16 16 16 16 16 16 16 15 15 14 14 12 10 10 10 8 6 4 4 4 4 4 4 3 2 3 3 3 4 5 6 7 18 13 11 10 10 10 10 9 10 10 10 10 10 10 10 10 11 12 12 13 13 12 11 11 10 11 11 11 11 11 11 10 10 9 9 9 9 9 9 10 12
20 19 18 17 17 16 16 16 14 14 15 15 16 16 16 15 15 15 14 14 12 10 9 8 8 7 6 6 4 4 4 3 3 2 2 2 2 2 3 3 4 6 8 9 10 11 11 11 10 10 10 10 10 10 10 9 9 9 9 10 12 12 13 13 13 12 12 11 11 11 11 11 11 10 10 10 9 8 8 8 9 9 9 9 9
19 17 16 15 15 14 14 14 13 13 14 14 15 15 14 14 14 13 13 11 9 8 7 7 7 5 5 4 3 3 2 2 2 2 2 2 2 1 2 4 6 8 10 11 12 12 11 11 11 11 11 10 10 10 10 9 8 9 10 10 12 13 14 14 14 13 12 12 12 11 11 11 10 9 9 10 9 9 8 8 8 8 9 9 9
17 15 14 13 13 13 13 12 11 12 12 12 13 13 13 13 12 12 12 9 8 7 6 6 5 5 4 4 3 4 2 2 3 3 2 2 3 2 3 5 8 11 13 13 13 13 12 12 12 12 11 11 11 10 10 10 9 9 10 12 14 15 15 14 14 14 13 13 12 12 11 11 10 10 9 9 9 8 8 8 8 8 8 9 9
15 13 11 11 11 11 11 10 10 11 12 12 13 13 12 11 12 12 11 9 8 6 6 6 5 5 4 4 4 4 3 2 2 2 2 2 2 3 11 14 14 14 15 15 15 14 14 14 14 13 14 19 20 20 21 22 14 12 13 15 13 15 14 14 14 14 15 14 13 12 11 11 10 10 10 10 9 8 9 9 9 9 9 9 10
13 11 10 9 9 9 9 11 10 11 11 12 13 13 12 11 12 12 12 9 8 7 6 6 6 6 6 4 4 3 2 1 11 15 15 5 11 14 16 15 15 15 15 15 14 15 15 14 15 19 19 19 19 19 19 19 19 17 15 15 13 12 11 13 15 16 15 14 14 13 12 12 11 11 10 10 10 10 9 9 9 10 10 10 10
13 11 9 9 9 9 9 10 10 11 12 13 16 15 14 14 15 14 13 11 11 10 8 8 7 7 6 5 3 3 2 3 15 18 18 17 11 14 15 15 15 15 15 14 14 14 14 15 14 17 19 20 17 17 17 17 17 17 17 17 17 15 11 14 15 15 15 14 15 15 13 11 11 10 10 10 10 10 10 10 10 11 11 11 11
13 11 10 9 10 10 10 11 11 13 15 17 18 18 17 17 17 17 16 14 13 12 9 8 7 6 6 5 3 3 2 14 18 21 21 21 22 16 15 14 14 16 15 15 15 15 15 14 14 14 13 13 12 11 15 15 15 15 16 16 16 17 17 16 15 13 13 13 13 13 11 11 11 11 11 11 11 11 12 12 12 12 12 12 12
13 13 11 10 10 11 11 12 13 16 17 18 19 19 19 18 17 17 15 15 14 12 9 9 7 7 5 4 4 4 3 17 19 21 22 23 24 22 16 16 15 15 16 15 15 15 14 14 14 14 13 16 15 9 7 7 13 13 13 14 14 14 14 16 17 16 15 14 14 13 13 12 12 12 12 12 14 13 13 13 13 13 13 13 13
14 13 13 13 12 12 13 16 15 16 17 19 19 19 18 18 17 17 16 16 15 14 12 11 9 6 5 4 5 4 4 17 21 22 23 23 23 24 16 17 15 17 18 17 16 15 15 14 13 13 11 8 7 7 7 6 6 6 6 6 7 12 16 17 18 18 17 15 14 14 13 12 12 12 14 15 15 16 16 16 16 16 16 16 16
14 14 14 13 13 15 15 15 16 17 19 20 19 18 18 18 18 18 17 16 15 14 11 10 9 9 8 6 5 5 4 17 20 22 23 23 24 25 17 17 18 18 18 17 16 16 15 15 13 12 10 9 8 10 9 9 8 8 8 9 11 12 13 12 13 13 13 13 13 12 13 13 14 15 16 17 18 19 20 19 19 17 14 14 13
15 15 15 15 14 14 16 17 17 18 19 20 19 19 18 18 18 17 16 15 14 11 8 7 9 9 8 7 6 5 4 17 19 21 23 24 24 19 17 17 17 17 17 16 16 16 14 13 12 11 10 10 14 16 16 15 12 9 10 13 15 16 16 18 20 21 19 18 18 17 17 18 22 20 20 20 18 18 16 15 15 15 14 13 12
15 15 16 15 15 15 16 17 18 19 19 19 19 19 19 17 17 17 15 15 13 11 11 10 10 9 8 7 6 5 5 15 19 21 22 24 25 16 16 16 16 16 15 14 14 13 12 12 11 11 10 10 14 17 18 18 15 16 16 16 17 17 17 18 21 23 23 22 22 23 23 23 23 22 22 21 17 16 13 12 11 11 8 6 6
17 17 16 17 16 15 16 19 19 20 20 19 19 19 18 18 16 15 14 13 13 12 11 10 9 9 8 7 7 6 6 12 19 21 22 23 23 15 16 16 15 14 12 13 13 12 12 15 15 13 12 11 16 18 19 18 17 17 17 17 18 17 17 18 19 19 21 21 20 20 20 20 19 19 16 17 18 16 9 7 8 8 8 8 6
18 17 16 16 16 16 19 19 20 20 20 20 20 19 18 17 16 15 15 14 14 12 10 10 8 7 8 7 12 8 6 10 18 21 22 23 23 15 15 13 13 12 11 11 12 12 12 14 16 16 15 15 19 20 20 19 19 19 19 18 16 16 18 19 17 17 16 14 13 11 10 10 7 6 7 14 14 12 6 7 8 8 7 7 6
18 17 16 16 17 19 20 21 21 20 21 20 20 19 18 16 16 15 14 14 13 11 10 10 9 8 7 6 7 10 6 4 10 20 22 23 24 16 14 13 12 11 11 10 9 9 11 11 14 18 20 21 21 21 22 22 20 20 19 18 18 17 17 17 16 16 14 12 10 7 5 5 6 6 5 5 6 7 6 5 6 6 6 6 6
19 18 17 18 19 19 20 21 21 21 21 20 20 18 18 18 16 14 14 12 10 8 9 9 8 8 6 7 6 7 7 5 6 19 22 23 24 22 15 15 13 11 8 9 9 9 10 12 11 16 19 19 20 21 21 21 21 19 20 19 17 18 19 15 13 13 9 7 5 5 5 5 5 5 5 5 6 5 5 5 4 3 4 4 3
19 19 19 19 19 20 20 20 20 20 20 19 19 18 17 17 16 15 13 12 10 10 8 7 8 7 5 5 5 5 7 10 4 15 20 22 23 24 18 15 14 10 9 9 10 10 11 11 11 14 17 19 20 21 21 21 21 21 16 20 21 19 16 12 8 6 2 1 0 2 1 1 3 3 4 4 5 6 4 3 3 3 3 3 4
20 20 19 19 19 19 19 19 20 19 19 19 19 18 16 15 13 13 12 10 10 10 8 7 7 7 5 4 4 4 3 6 14 8 17 21 23 24 24 21 21 14 10 10 10 10 11 11 12 15 17 19 20 21 21 21 21 18 19 19 18 17 15 6 5 -1 -3 -2 -1 -1 0 -0 -0 2 3 4 4 5 4 3 3 4 5 6 6
20 20 19 19 18 18 18 18 19 18 19 19 18 17 15 14 13 12 12 11 10 10 9 7 6 6 6 6 4 4 3 2 11 16 12 18 22 24 25 25 24 19 15 13 12 12 12 12 14 17 19 20 20 20 21 21 19 18 18 17 16 15 6 0 -2 -3 -1 -3 -2 -2 -2 -0 1 2 3 4 4 4 3 3 4 4 4 5 5
19 19 19 18 18 18 16 18 18 17 17 18 17 17 13 12 13 9 10 10 10 10 10 7 6 7 7 6 6 5 3 3 2 8 17 18 19 21 23 24 24 24 19 16 15 14 16 18 19 19 19 19 20 21 21 17 15 15 15 15 14 2 -1 -3 -5 -5 -5 -4 -3 -1 -1 1 2 3 3 3 3 4 4 4 5 5 6 6 7
18 20 18 18 17 15 15 13 13 14 15 17 18 17 15 13 14 11 10 11 10 10 10 7 6 6 6 6 6 5 4 3 3 2 10 15 18 20 21 22 22 23 23 21 21 20 20 20 20 21 20 20 19 15 12 11 13 13 13 12 -0 -3 -3 -5 -6 -6 -5 -3 -2 -1 1 2 2 2 3 3 3 2 3 3 4 4 4 4 4
17 14 13 13 11 10 15 15 12 8 9 10 12 14 14 13 13 11 10 10 10 9 9 8 7 6 6 6 6 5 3 3 3 3 3 5 10 14 17 18 21 22 20 20 22 21 21 20 20 21 20 20 20 18 15 12 3 -0 -1 -1 -3 -4 -3 -5 -5 -5 -2 -2 -1 -0 1 2 3 3 2 2 1 2 4 4 3 4 4 4 4
16 12 9 8 8 7 9 11 9 7 6 7 11 9 9 11 12 12 10 10 10 9 9 8 8 8 7 7 3 1 4 3 3 3 3 4 5 8 11 12 14 17 18 19 19 18 17 19 19 15 10 8 6 2 -2 -3 -1 -0 -3 -4 -4 -2 4 7 7 -1 -2 -2 -2 -1 -1 -1 -1 -0 1 1 1 2 4 3 4 3 4 4 3
8 7 6 7 6 5 6 4 5 4 3 2 0 3 7 7 10 8 4 3 5 6 7 8 7 3 2 3 4 4 4 4 4 9 6 10 5 4 6 8 11 12 16 19 16 14 13 12 10 10 9 9 6 3 -1 -5 -4 -5 -6 -7 -8 -7 -8 -6 -7 -4 -5 -6 -4 -3 -2 -3 -1 -1 -0 -0 1 2 2 2 3 3 3 3 2
7 7 7 6 5 4 4 4 2 4 4 4 3 2 6 14 12 6 6 13 13 15 16 8 4 3 5 7 7 7 7 6 11 14 15 16 16 16 13 13 14 12 14 18 18 14 12 10 10 10 10 7 6 4 1 -4 -5 -7 -8 3 -2 -6 -6 -6 -7 -5 -5 -4 -4 -4 -4 -3 -2 -2 -1 0 2 2 3 6 3 3 2 2 1
7 7 5 6 7 6 4 3 3 3 3 1 -0 2 2 4 15 16 17 14 15 15 17 18 18 17 9 6 9 15 15 14 14 15 16 18 18 18 18 18 18 18 18 15 14 14 12 11 10 10 9 7 5 4 1 -3 -5 -6 -6 -7 -8 -5 -2 -5 -6 -5 -4 -5 -5 -5 -4 -4 -2 -1 -0 1 1 2 2 1 1 1 1 1 1
10 9 7 4 7 5 3 3 2 2 -0 -0 1 -0 -1 -0 3 11 14 17 17 17 16 16 17 17 18 15 10 5 12 15 16 15 15 16 18 19 19 20 21 21 20 21 15 13 13 12 10 9 8 5 4 2 -0 -3 -4 -5 -7 -8 -5 -7 -5 -5 -4 -5 -6 -6 -6 -4 -5 -3 -2 -1 -0 0 2 1 0 1 0 0 1 1 1
7 4 4 5 4 6 3 3 2 2 0 -1 -2 -1 2 -0 2 1 4 13 15 17 18 18 17 17 18 18 18 16 12 12 13 14 16 16 17 18 20 21 22 22 22 19 17 15 13 11 10 8 6 5 4 1 -1 -4 -4 -4 -6 -5 -4 -3 -4 -4 -1 -4 -5 -5 -5 -4 -4 -3 -2 -1 0 0 -0 -1 0 -0 -0 -0 0 -0 0
3 2 1 1 3 2 2 1 2 1 -0 0 -1 -1 -1 -1 -1 -2 -3 -3 4 13 16 18 18 18 18 18 18 19 19 18 16 16 17 18 19 20 21 19 22 22 21 18 17 16 13 10 9 8 6 4 3 0 -2 -3 -4 -4 -5 -3 -3 -4 -4 -6 -6 -4 -6 -6 -7 -5 -4 -4 -3 -3 -3 -2 -2 -1 0 0 -0 -1 -1 -1 -0
-1 1 2 1 -1 -0 0 1 0 -2 -2 -1 -2 -2 -2 -2 -3 -3 -5 -4 -3 -1 1 5 11 14 16 17 19 20 20 20 21 21 21 21 21 21 21 17 17 17 17 17 16 14 13 10 9 7 5 3 1 -0 -1 -2 -3 -4 -4 -4 -5 -7 -7 -5 -7 -5 -8 -9 -8 -7 -6 -4 -5 -3 -3 -3 -2 -1 -0 -0 -1 -1 -2 -1 1
-1 -1 -2 -2 -2 -2 -3 -3 -3 -1 -4 -5 -5 -4 -3 -3 -5 -7 -5 -6 -7 -7 -7 -5 1 9 10 11 12 14 16 17 18 18 18 18 19 20 16 16 15 14 13 13 12 11 10 9 8 7 4 3 1 -1 -1 -2 -3 -3 -3 -6 -6 -7 -9 -9 -8 -9 -8 -9 -7 -5 -2 -5 -6 -4 -5 -5 -4 -2 -1 -1 -1 -1 -1 -0 2
-1 -2 -2 -4 -4 -3 -5 -5 -5 -2 5 -2 -4 -6 -5 -5 -5 -8 -8 -9 -7 -7 -6 -4 -1 -1 4 3 5 10 12 14 15 16 16 17 18 16 15 14 12 12 10 10 10 8 8 7 5 4 2 1 -0 -1 -2 -3 -3 -4 -1 -4 -7 -8 -9 -11 -9 -7 -9 -9 -10 -10 -9 -8 -7 -7 -7 -6 -4 -3 -2 -1 -1 -1 -1 0 1
-5 -3 -4 -6 -3 -6 -4 -2 -3 2 -2 -4 -5 -8 -7 -8 -8 -8 -8 -8 -6 -5 -5 -6 2 -4 -2 -0 3 3 3 8 11 11 9 10 9 10 11 12 12 11 10 10 9 8 7 6 3 2 1 0 -1 -2 -3 -4 -5 -5 -6 -7 -8 -7 -2 -2 -2 -7 -9 -10 -9 -10 -9 -8 -9 -8 -5 -6 -5 -4 -3 -2 -2 -2 -1 1 1
-4 2 4 4 2 -6 -7 -6 -7 -7 -7 -7 -7 -7 -6 -8 -8 -9 -10 -10 -8 -9 -7 -7 -5 -2 -1 1 -0 1 2 -1 -1 -1 0 1 2 3 4 5 6 7 8 8 6 5 5 5 2 1 0 -1 -2 -3 -4 -4 -5 -6 -7 -9 -9 -12 -9 -11 -11 -11 -12 -12 -11 -11 -11 -10 -10 -9 -8 -7 -6 -5 -5 -4 -2 -1 -0 -0 -0
-3 -2 2 4 -0 -1 -5 -5 -7 -8 -7 -9 -10 -9 -8 -8 -9 -9 -11 -11 -9 -8 -7 -6 -6 -6 -5 -5 -5 -4 -4 -4 -4 -3 -2 -2 -2 -1 -1 -1 -0 1 3 4 4 3 2 1 0 -1 -2 -3 -4 -4 -4 -5 -6 -6 -9 -9 -10 -10 -10 -13 -12 -13 -12 -13 -13 -11 -11 -11 -10 -9 -9 -9 -7 -6 -5 -3 -1 -1 -1 -1 -0
-3 -3 0 2 0 -4 -5 -7 -8 -10 -10 -9 -11 -12 -10 -9 -9 -9 -11 -10 -9 -8 -9 -9 -11 -13 -8 -3 4 5 2 1 0 -1 -1 -2 -2 -3 -3 -3 -2 -2 -0 1 2 2 1 -0 -2 -2 -3 -5 -6 -5 -6 -7 -7 -8 -9 -9 -12 -10 -11 -12 -12 -13 -13 -13 -12 -12 -12 -12 -11 -11 -10 -9 -3 -3 -4 -4 -3 -3 -2 -1 -1
-7 -7 -6 -6 -4 -8 -9 -8 -8 -5 -10 -8 -12 -11 -9 -9 -11 -11 -10 -10 -10 -10 -12 -14 -17 -16 -7 2 4 5 0 -3 -4 -4 -4 -3 -2 -2 -2 -3 -4 -3 -2 -1 -1 -1 -1 -2 -3 -4 -5 -5 -6 -7 -8 -9 -9 -9 -9 -11 -11 -12 -11 -10 -11 -14 -14 -14 -14 -13 -14 -12 -10 -9 -7 -3 -8 -9 -7 -5 -4 -4 -3 -3 -1
-9 -10 -11 -9 -11 -10 -10 -10 -11 -13 -12 -13 -11 -7 -9 -13 -14 -12 -13 -12 -13 -13 -14 -16 -17 -16 -13 -2 -4 -2 -8 -13 -8 -10 -11 -9 -8 -6 -5 -4 -5 -5 -5 -5 -6 -5 -3 -5 -6 -6 -6 -5 -6 -6 -7 -7 -8 -9 -10 -12 -11 -12 -12 -12 -14 -13 -15 -15 -14 -13 -13 -13 -11 -13 -13 -11 -9 -8 -7 -7 -6 -6 -5 -3 -2
-12 -12 -12 -12 -14 -14 -13 -16 -14 -13 -14 -11 -12 -13 -13 -14 -15 -15 -15 -16 -16 -16 -17 -18 -17 -17 -17 -14 -10 -13 -17 -16 -16 -15 -13 -11 -11 -9 -9 -7 -6 -5 -5 -5 -8 -8 -6 -7 -8 -6 -6 -6 -6 -8 -7 -7 -8 -9 -10 -11 -11 -11 -12 -13 -13 -13 -15 -15 -15 -14 -15 -15 -12 -13 -11 -9 -12 -11 -10 -9 -8 -6 -4 -3 -3
-16 -16 -16 -17 -17 -18 -17 -16 -16 -17 -13 -15 -18 -17 -14 -15 -15 -16 -15 -17 -16 -16 -17 -17 -17 -17 -17 -18 -19 -18 -18 -18 -15 -14 -14 -14 -14 -13 -12 -11 -10 -8 -7 -6 -5 -6 -7 -6 -6 -8 -7 -7 -7 -8 -8 -8 -9 -9 -9 -10 -12 -11 -11 -11 -12 -15 -17 -17 -14 -15 -15 -14 -15 -15 -14 -14 -12 -12 -10 -9 -8 -6 -5 -4 -4
-17 -17 -16 -17 -17 -16 -17 -19 -15 -20 -19 -19 -19 -19 -22 -21 -19 -17 -17 -17 -17 -17 -18 -18 -19 -18 -17 -19 -20 -18 -17 -19 -18 -16 -15 -14 -14 -14 -13 -13 -11 -10 -9 -8 -7 -7 -6 -6 -7 -7 -8 -8 -8 -9 -9 -9 -9 -10 -10 -10 -10 -10 -11 -12 -16 -16 -16 -17 -15 -16 -16 -14 -15 -13 -10 -12 -12 -11 -11 -10 -9 -7 -6 -4 -3
-19 -17 -16 -16 -17 -16 -16 -16 -20 -19 -19 -19 -18 -18 -20 -21 -21 -18 -15 -16 -18 -16 -18 -20 -20 -20 -19 -20 -19 -19 -18 -18 -17 -16 -16 -16 -16 -15 -14 -14 -12 -11 -9 -8 -9 -7 -8 -8 -8 -8 -9 -9 -9 -10 -10 -10 -10 -10 -10 -10 -11 -11 -12 -13 -14 -14 -14 -15 -14 -17 -15 -14 -13 -13 -11 -11 -11 -12 -11 -11 -10 -8 -6 -4 -3
-19 -19 -18 -17 -19 -19 -19 -20 -18 -14 -17 -17 -18 -18 -18 -18 -19 -19 -20 -20 -20 -19 -20 -20 -22 -22 -20 -19 -19 -19 -19 -17 -17 -17 -16 -16 -16 -15 -15 -15 -13 -12 -11 -10 -10 -9 -9 -9 -9 -10 -10 -10 -10 -10 -10 -11 -11 -12 -12 -12 -12 -12 -12 -11 -14 -15 -15 -15 -16 -16 -15 -15 -15 -15 -14 -14 -14 -13 -12 -11 -9 -7 -4 -3 -2
-20 -20 -20 -19 -18 -19 -18 -18 -17 -20 -21 -21 -19 -20 -18 -20 -20 -21 -20 -21 -21 -20 -22 -21 -19 -21 -22 -19 -20 -18 -18 -18 -18 -19 -17 -16 -17 -17 -15 -15 -14 -13 -13 -11 -10 -10 -10 -10 -10 -10 -10 -11 -11 -11 -11 -11 -12 -12 -13 -13 -13 -11 -11 -10 -10 -13 -11 -13 -16 -16 -17 -17 -16 -15 -14 -13 -12 -12 -10 -9 -7 -6 -5 -4 -2
-19 -19 -19 -18 -18 -18 -20 -21 -22 -25 -22 -20 -22 -22 -20 -20 -21 -20 -21 -21 -22 -22 -22 -22 -20 -20 -22 -19 -19 -17 -20 -19 -18 -17 -17 -17 -16 -17 -16 -16 -16 -15 -14 -12 -11 -11 -11 -11 -11 -12 -12 -12 -12 -12 -12 -12 -13 -13 -14 -14 -10 -10 -10 -10 -9 -9 -9 -14 -14 -16 -16 -16 -16 -15 -15 -14 -12 -10 -9 -8 -6 -4 -4 -3 -3
-17 -18 -18 -19 -20 -19 -20 -21 -23 -24 -25 -22 -23 -23 -21 -22 -20 -21 -21 -21 -20 -20 -21 -21 -22 -21 -20 -19 -19 -18 -17 -19 -17 -17 -17 -17 -17 -17 -17 -16 -15 -16 -15 -14 -13 -13 -12 -12 -12 -13 -13 -13 -13 -13 -13 -13 -13 -14 -12 -10 -10 -9 -9 -9 -10 -9 -9 -9 -15 -15 -15 -14 -13 -13 -13 -12 -10 -9 -6 -5 -6 -6 -5 -3 -4